Voltar ao catálogo

COSMOS 2251 DEB

AtivoLEO
NORAD 35611·DEBRIS·🇷🇺 Russia

Lançado Jun 16, 1993 de Plesetsk Cosmodrome

Loading…

Próximas Passagens (próximas 24 horas)

TLE

AtualizadoSource: Space-Track

Época: Sep 14, 2026, 06:23 UTC

1 35611U 93036ANE 26257.26665459  .00007722  00000-0  10308-2 0  9994
2 35611  74.0206 358.8168 0020692   3.9405 356.1930 14.79569637913575

Acompanhe COSMOS 2251 DEB em tempo real com AllMySat

Download on the App Store